Weather Roundup
Issued by NWS Chicago, IL

Home | Current Version | Previous Version | Graphics & Text | Print | Product List | Glossary On
Versions: 1 2 3 4 5 6 7 8 9 10 11 12 13 14 15 16 17 18 19 20 21 22 23 24 25 26 27 28 29 30 31 32 33 34 35 36 37 38 39 40 41 42 43 44 45 46 47 48 49 50
000
NZUS59 KLOT 272110
HRRLOT

CHICAGO AREA WEATHER ROUNDUP
NATIONAL WEATHER SERVICE CHICAGO/ROMEOVILLE IL
400 PM CDT WED AUG 27 2014

NOTE: "FAIR" INDICATES FEW OR NO CLOUDS BELOW 12,000 FEET WITH NO
SIGNIFICANT WEATHER AND/OR OBSTRUCTIONS TO VISIBILITY.

* THESE STATIONS ARE NOT UNDER NWS QUALITY CONTROL. THEY ALSO MAY NOT
  REPORT WEATHER SUCH AS PRECIPITATION OR FOG.

ILZ005-006-012>014-019>023-272200-
NORTHEAST ILLINOIS

CITY           SKY/WX    TMP DP  RH WIND       PRES   REMARKS
OHARE          CLOUDY    76  61  59 NE13      30.13S
MIDWAY         PTSUNNY   77  64  64 NE12      30.12S
AURORA         PTSUNNY   79  62  56 NW5       30.13F HX  80
LANSING*       MOSUNNY   76  64  66 NE10      30.13S
JOLIET*        PTSUNNY   81  60  49 CALM      30.12S HX  81
WAUKEGAN       CLOUDY    72  64  76 NE8       30.15S
DUPAGE AIRPORT PTSUNNY   81  61  50 N7        30.12F HX  82
WHEELING       CLOUDY    74  64  71 E9        30.15S
KANKAKEE*      PTSUNNY   81  65  58 NW3       30.11F HX  83
MORRIS*        PTSUNNY   82  65  57 CALM      30.11F HX  84
LEWIS AIRPORT* PTSUNNY   80  61  52 N3        30.12S HX  81
NORTHERLY IS     N/A     72  64  76 NE9         N/A
$$

WIZ051-052-058>065-066-070>072-272200-
SOUTHEAST WISCONSIN

CITY           SKY/WX    TMP DP  RH WIND       PRES   REMARKS
MILWAUKEE      PTSUNNY   72  62  71 NE8       30.16F
KENOSHA*       CLOUDY    72  63  73 E8        30.16S
RACINE*        CLOUDY    71  61  70 NE8       30.17F
BURLINGTON     CLOUDY    74  62  67 NE3       30.15S
WAUKESHA       CLOUDY    72  61  68 E7        30.17F
WEST BEND      PTSUNNY   70  59  68 SE8       30.16F
$$

INZ001>003-010>013-019-020-272200-
NORTHWEST INDIANA

CITY           SKY/WX    TMP DP  RH WIND       PRES   REMARKS
GARY*          PTSUNNY   75  63  64 NE9       30.15R
MICHIGAN CITY* NOT AVBL
RENSSELAER*    NOT AVBL
VALPARAISO     SUNNY     77  63  61 N10       30.14R
$$

LMZ740>746-272200-
SOUTHERN LAKE MICHIGAN

STATION/POSITION TIME  SKY/WX   TEMP WIND        PRES    VSBY
                                AIR  DIR/SP/G
                 (UTC)          (F)  (DEG/KT/KT) (MB)    (MI)
HARRISON CRIB    2100            70   30/ 11/ 12   N/A
BURNHAM HARBOR   2100            72   30/  7/ 11   N/A
CALUMET HARBOR   2100            72   10/  9/ 12 1019.4S
BURNS HARBOR     NOT AVBL
MICHIGAN CITY    2100            69  360/ 15/ 17   N/A
$$

ABBREVIATIONS USED IN REMARKS
   TC - TEMPERATURE IN CELSIUS
  WCI - WIND CHILL INDEX
   HX - HEAT INDEX
  VSB - VISIBILITY
$$


USA.gov is the U.S. government's official web portal to all federal, state and local government web resources and services.